Location: Starry Hill Observatory
(46.8582°N, 122.3590°W)
Time: 17:54:47
(UTC-07:00)

ISS - Visible Passes

Search period start: 29 July 2014 00:00
Search period end: 08 August 2014 00:00
Orbit: 411 x 419 km, 51.6° (Epoch: 29 July)

Date Brightness Start Highest point End Pass type
(mag) Time Alt. Az. Time Alt. Az. Time Alt. Az.
29 Jul -2.2 02:17:05 43° NNW 02:17:08 43° NNW 02:20:23 10° ENE visible
29 Jul -1.7 03:51:10 10° WNW 03:54:19 36° N 03:57:29 10° ENE visible
30 Jul -1.3 01:29:54 26° NE 01:29:54 26° NE 01:31:33 10° ENE visible
30 Jul -1.6 03:02:46 13° WNW 03:05:22 34° N 03:08:30 10° ENE visible
30 Jul -2.8 04:39:06 10° WNW 04:42:28 64° NNE 04:45:48 10° ESE visible
31 Jul -1.7 02:15:38 30° NW 02:16:24 35° N 02:19:32 10° ENE visible
31 Jul -2.3 03:50:17 10° WNW 03:53:34 48° NNE 03:56:51 10° E visible
01 Aug -1.3 01:28:38 28° NE 01:28:38 28° NE 01:30:38 10° ENE visible
01 Aug -1.9 03:01:30 10° WNW 03:04:38 40° N 03:07:50 10° E visible
01 Aug -3.3 04:38:10 10° WNW 04:41:30 66° SSW 04:44:51 10° SE visible
02 Aug -1.7 02:14:52 31° NNW 02:15:40 36° N 02:18:49 10° ENE visible
02 Aug -3.3 03:49:18 10° WNW 03:52:41 84° NNE 03:56:03 10° ESE visible
02 Aug -2.5 22:10:01 10° SSW 22:12:59 30° SE 22:14:17 22° E visible
02 Aug -1.1 23:46:16 10° W 23:47:25 20° W 23:47:25 20° W visible
03 Aug -0.4 01:29:20 13° ENE 01:29:20 13° ENE 01:29:49 10° ENE visible
03 Aug -2.8 03:02:23 30° NW 03:03:48 60° NNE 03:07:08 10° ESE visible
03 Aug -2.4 04:37:24 10° W 04:40:22 29° SW 04:43:19 10° SSE visible
03 Aug -1.9 21:21:50 10° S 21:24:18 19° SE 21:26:46 10° E visible
03 Aug -3.3 22:57:21 10° WSW 23:00:41 80° NNW 23:02:58 19° ENE visible
04 Aug -0.9 00:34:34 10° WNW 00:35:55 20° WNW 00:35:55 20° WNW visible
04 Aug -2.6 03:52:26 36° S 03:52:26 36° S 03:54:50 10° SE visible
04 Aug -3.4 22:08:31 10° SW 22:11:50 69° SSE 22:15:10 10° ENE visible
04 Aug -1.9 23:45:32 10° W 23:48:43 39° N 23:49:36 32° NNE visible
05 Aug -2.9 21:19:50 10° SW 21:23:01 44° SE 21:26:13 10° ENE visible
05 Aug -2.3 22:56:30 10° W 22:59:45 47° NNW 23:02:40 12° ENE visible
06 Aug -1.1 00:33:47 10° WNW 00:35:32 24° NW 00:35:32 24° NW visible
06 Aug -2.8 22:07:30 10° WSW 22:10:48 61° NNW 22:14:08 10° ENE visible
06 Aug -1.7 23:44:47 10° WNW 23:47:54 34° N 23:48:23 32° NNE visible
07 Aug -3.2 21:18:33 10° WSW 21:21:53 86° NNW 21:25:15 10° ENE visible
07 Aug -1.7 22:55:45 10° WNW 22:58:53 36° N 23:01:09 16° NE visible
